Weather History for Lancaster, CA

Change the Weather History Date:

Tuesday, March 26, 2013

  Actual Average Record
Temperature  
Mean Temperature 63 °F 55 °F  
Max Temperature 79 °F 69 °F 86 °F (1988)
Min Temperature 47 °F 40 °F 28 °F (1976)
Degree Days  
Heating Degree Days 2    
Month to date heating degree days 193  
Since 1 July heating degree days 2565  
Cooling Degree Days 0    
Month to date cooling degree days 11  
Year to date cooling degree days 11  
Growing Degree Days 13 (Base 50)    
Moisture  
Dew Point 30 °F    
Average Humidity 31    
Maximum Humidity 50    
Minimum Humidity 12    
Precipitation  
Precipitation 0.00 in 0.02 in 0.79 in (1991)
Month to date precipitation 0.35 1.01  
Year to date precipitation 0.95 4.29  
Since 1 July precipitation 1.11 6.76  
Snow  
Snow 0.00 in - 0.00 in ()
Month to date snowfall 0.0  
Since 1 July snowfall 0.0  
Snow Depth 0.00 in    
Sea Level Pressure  
Sea Level Pressure 29.90 in    
Wind  
Wind Speed 13 mph (WSW)    
Max Wind Speed 24 mph    
Max Gust Speed 29 mph    
Visibility 10 miles    
Events      
T = Trace of Precipitation, MM = Missing Value Source: NWS Daily Summary

Daily Weather History Graph

Daily Weather History Graph

Search for Another Location

Airport:

Trip Planner

Search our weather history database for the weather conditions in past years. The results will help you decide how hot, cold, wet, or windy it might be!

Date:

Astronomy

Mar. 26, 2013 Rise Set
Actual Time 6:47 AM PDT 7:09 PM PDT
Civil Twilight 6:22 AM PDT 7:34 PM PDT
Nautical Twilight 5:52 AM PDT 8:04 PM PDT
Astronomical Twilight 5:22 AM PDT 8:34 PM PDT
Moon 6:50 PM PDT (3/26) 6:06 AM PDT (3/26)
Length of Visible Light 13h 12m
Length of Day
12h 21m
Full, 100% of the Moon is Illuminated
Mar 26
Full
Mar 27
Full
Apr 2
Last Quarter
Apr 10
New
Apr 18
First Quarter

Hourly Weather History & Observations

Time (PDT) Temp. Dew Point Humidity Pressure Visibility Wind Dir Wind Speed Gust Speed Precip Events Conditions
12:56 AM 57.0 °F 33.1 °F 40% 29.92 in 10.0 mi WSW 6.9 mph - N/A   Clear
1:56 AM 60.1 °F 30.0 °F 32% 29.90 in 10.0 mi WSW 12.7 mph - N/A   Clear
2:56 AM 57.9 °F 30.0 °F 35% 29.90 in 10.0 mi SW 11.5 mph - N/A   Clear
3:56 AM 55.9 °F 28.9 °F 36% 29.89 in 10.0 mi SW 10.4 mph - N/A   Clear
4:56 AM 55.0 °F 33.1 °F 43% 29.89 in 10.0 mi SW 9.2 mph - N/A   Clear
5:56 AM 52.0 °F 30.9 °F 45% 29.90 in 10.0 mi WSW 8.1 mph - N/A   Clear
6:56 AM 48.0 °F 30.9 °F 52% 29.92 in 10.0 mi WNW 6.9 mph - N/A   Clear
7:56 AM 55.0 °F 32.0 °F 42% 29.93 in 10.0 mi West 3.5 mph - N/A   Clear
8:56 AM 64.0 °F 30.9 °F 29% 29.93 in 10.0 mi West 6.9 mph - N/A   Clear
9:56 AM 68.0 °F 28.9 °F 23% 29.92 in 10.0 mi West 12.7 mph - N/A   Clear
10:56 AM 70.0 °F 27.0 °F 20% 29.92 in 10.0 mi SW 10.4 mph - N/A   Clear
11:56 AM 73.0 °F 25.0 °F 17% 29.91 in 10.0 mi SW 11.5 mph 20.7 mph N/A   Clear
12:56 PM 75.0 °F 26.1 °F 16% 29.89 in 10.0 mi WSW 13.8 mph 20.7 mph N/A   Clear
1:56 PM 75.9 °F 26.1 °F 16% 29.87 in 10.0 mi WSW 10.4 mph 17.3 mph N/A   Clear
2:56 PM 78.1 °F 25.0 °F 14% 29.85 in 10.0 mi WSW 15.0 mph 27.6 mph N/A   Clear
3:56 PM 75.9 °F 32.0 °F 20% 29.85 in 10.0 mi WSW 18.4 mph 25.3 mph N/A   Clear
4:56 PM 75.0 °F 19.9 °F 13% 29.86 in 10.0 mi West 19.6 mph 27.6 mph N/A   Clear
5:56 PM 72.0 °F 21.0 °F 15% 29.86 in 10.0 mi West 23.0 mph - N/A   Clear
6:56 PM 66.9 °F 25.0 °F 21% 29.88 in 10.0 mi West 19.6 mph - N/A   Clear
7:56 PM 62.1 °F 42.1 °F 48% 29.89 in 10.0 mi WSW 13.8 mph - N/A   Clear
8:56 PM 59.0 °F 37.9 °F 46% 29.90 in 10.0 mi West 13.8 mph - N/A   Clear
9:56 PM 59.0 °F 32.0 °F 36% 29.91 in 10.0 mi West 17.3 mph - N/A   Clear
10:56 PM 59.0 °F 32.0 °F 36% 29.90 in 10.0 mi West 17.3 mph - N/A   Clear
11:56 PM 57.0 °F 34.0 °F 42% 29.91 in 10.0 mi West 12.7 mph - N/A   Clear